User: anonymous   Login
Location: Paris
(48.6709°N, 2.3750°E)
Time: 02:22:05
(UTC+02:00)
Language:

KKS-1 - Orbit

View from above orbital plane
View from above orbital plane
View from above satellite
View from above satellite

Ground track
Ground track

The orbit data is extracted from the following two-line orbital elements,

1 33499U 09002H   22179.56342951  .00000422  00000-0  68991-4 0  9990
2 33499  98.2167  61.7931 0007661 282.5066  77.5286 14.76031397721881
Epoch (UTC): 28 June 2022 13:31:20
Eccentricity: 0.0007661
inclination: 98.2167°
perigee height: 636 km
apogee height: 647 km
right ascension of ascending node: 61.7931°
argument of perigee: 282.5066°
revolutions per day: 14.76031397
mean anomaly at epoch: 77.5286°
orbit number at epoch: 72188

The dashed part of the orbit path shows where the satellite is in the earth's shadow,  

DLR